QPF
0.06 0.07 0.06 0.03 0.02 0.03 0.03 0.02 0.02 0.02 0.01 0.02 0.02 0.03 0.02 0.01 0.00 0.00 0.00 0.00 0.00 0.01 0.01 0.01 0.02 0.02 0.05 0.06 0.04 0.04 0.04 0.04 0.03 0.04 0.05 0.05 0.04 0.04 0.04 0.05 0.04 0.03 0.03
0.06 0.08 0.08 0.06 0.03 0.02 0.03 0.03 0.03 0.02 0.02 0.02 0.02 0.03 0.03 0.01 0.00 0.00 0.00 0.00 0.00 0.00 0.01 0.01 0.02 0.02 0.05 0.06 0.05 0.04 0.03 0.04 0.04 0.03 0.05 0.05 0.04 0.04 0.03 0.03 0.04 0.03 0.03
0.06 0.08 0.08 0.06 0.06 0.04 0.04 0.04 0.04 0.04 0.03 0.03 0.03 0.04 0.04 0.03 0.02 0.01 0.01 0.01 0.00 0.00 0.01 0.01 0.01 0.02 0.03 0.03 0.03 0.04 0.04 0.04 0.04 0.04 0.04 0.04 0.05 0.05 0.04 0.04 0.03 0.03 0.03
0.04 0.07 0.07 0.06 0.06 0.05 0.04 0.05 0.04 0.04 0.04 0.04 0.04 0.04 0.06 0.06 0.04 0.02 0.01 0.01 0.01 0.01 0.01 0.01 0.01 0.01 0.02 0.02 0.03 0.04 0.04 0.04 0.04 0.04 0.04 0.04 0.03 0.03 0.04 0.04 0.03 0.03 0.03
0.03 0.04 0.06 0.05 0.06 0.06 0.05 0.05 0.04 0.04 0.04 0.04 0.04 0.04 0.05 0.07 0.06 0.04 0.02 0.02 0.02 0.01 0.01 0.01 0.01 0.01 0.01 0.02 0.02 0.04 0.04 0.04 0.03 0.04 0.05 0.05 0.03 0.02 0.02 0.02 0.02 0.02 0.03
0.03 0.03 0.05 0.05 0.06 0.06 0.06 0.04 0.05 0.04 0.04 0.04 0.04 0.04 0.05 0.06 0.05 0.04 0.04 0.03 0.02 0.02 0.01 0.02 0.02 0.02 0.02 0.02 0.02 0.03 0.04 0.04 0.03 0.02 0.03 0.03 0.04 0.04 0.03 0.03 0.02 0.02 0.03
0.03 0.03 0.04 0.05 0.05 0.06 0.06 0.05 0.04 0.04 0.05 0.04 0.04 0.04 0.05 0.05 0.05 0.04 0.03 0.02 0.02 0.02 0.02 0.03 0.04 0.04 0.03 0.02 0.02 0.03 0.03 0.03 0.03 0.03 0.03 0.03 0.03 0.04 0.04 0.04 0.04 0.03 0.03
0.01 0.02 0.03 0.04 0.04 0.05 0.05 0.06 0.05 0.05 0.04 0.04 0.04 0.04 0.05 0.07 0.07 0.04 0.03 0.02 0.02 0.02 0.03 0.03 0.04 0.04 0.03 0.02 0.03 0.03 0.03 0.03 0.03 0.03 0.02 0.03 0.02 0.02 0.03 0.04 0.05 0.04 0.04
0.01 0.01 0.02 0.02 0.03 0.03 0.04 0.05 0.06 0.06 0.06 0.05 0.03 0.04 0.06 0.06 0.07 0.07 0.05 0.03 0.02 0.02 0.02 0.02 0.03 0.03 0.02 0.01 0.01 0.01 0.01 0.02 0.02 0.02 0.02 0.02 0.02 0.02 0.02 0.03 0.04 0.04 0.05
0.01 0.01 0.01 0.02 0.02 0.02 0.03 0.04 0.05 0.06 0.06 0.07 0.06 0.04 0.04 0.04 0.05 0.05 0.06 0.05 0.04 0.03 0.02 0.01 0.01 0.01 0.01 0.01 0.01 0.00 0.01 0.01 0.02 0.02 0.02 0.03 0.03 0.03 0.03 0.03 0.04 0.04 0.03
0.01 0.01 0.01 0.01 0.02 0.02 0.02 0.03 0.04 0.06 0.07 0.07 0.07 0.06 0.04 0.04 0.03 0.03 0.03 0.05 0.05 0.04 0.03 0.02 0.01 0.01 0.00 0.00 0.01 0.00 0.00 0.01 0.01 0.02 0.02 0.03 0.04 0.04 0.03 0.03 0.03 0.04 0.04
0.02 0.01 0.01 0.01 0.02 0.02 0.02 0.02 0.04 0.06 0.07 0.07 0.07 0.06 0.05 0.04 0.04 0.03 0.02 0.02 0.03 0.03 0.02 0.02 0.02 0.01 0.01 0.00 0.00 0.01 0.01 0.01 0.01 0.01 0.02 0.03 0.04 0.04 0.04 0.03 0.03 0.03 0.03
0.02 0.02 0.02 0.02 0.02 0.02 0.02 0.02 0.03 0.05 0.06 0.06 0.06 0.06 0.06 0.04 0.04 0.03 0.02 0.02 0.03 0.03 0.02 0.02 0.02 0.02 0.01 0.01 0.01 0.01 0.01 0.01 0.01 0.01 0.01 0.02 0.04 0.05 0.05 0.04 0.03 0.02 0.02
0.01 0.02 0.02 0.02 0.02 0.02 0.02 0.03 0.03 0.04 0.06 0.07 0.06 0.06 0.06 0.06 0.04 0.04 0.03 0.03 0.03 0.04 0.03 0.02 0.02 0.03 0.03 0.02 0.01 0.01 0.01 0.01 0.01 0.00 0.01 0.01 0.03 0.03 0.04 0.05 0.04 0.03 0.02
0.01 0.01 0.01 0.01 0.01 0.02 0.02 0.02 0.03 0.03 0.04 0.06 0.06 0.06 0.06 0.06 0.05 0.04 0.03 0.03 0.04 0.04 0.03 0.02 0.01 0.02 0.02 0.02 0.01 0.01 0.00 0.01 0.01 0.01 0.01 0.01 0.02 0.02 0.03 0.03 0.03 0.03 0.03
0.01 0.01 0.01 0.01 0.01 0.01 0.01 0.02 0.02 0.03 0.03 0.04 0.05 0.06 0.06 0.06 0.05 0.04 0.03 0.03 0.03 0.03 0.03 0.02 0.01 0.01 0.02 0.02 0.02 0.01 0.00 0.01 0.01 0.01 0.01 0.01 0.02 0.02 0.02 0.03 0.03 0.03 0.03
0.00 0.00 0.00 0.01 0.01 0.01 0.01 0.01 0.01 0.02 0.02 0.03 0.03 0.04 0.05 0.05 0.06 0.05 0.04 0.03 0.03 0.03 0.03 0.02 0.02 0.02 0.01 0.02 0.02 0.01 0.01 0.01 0.00 0.00 0.01 0.01 0.02 0.03 0.03 0.03 0.03 0.03 0.03
0.00 0.00 0.00 0.01 0.01 0.01 0.01 0.01 0.01 0.01 0.02 0.02 0.03 0.03 0.03 0.04 0.05 0.05 0.05 0.04 0.03 0.03 0.03 0.03 0.03 0.02 0.02 0.02 0.02 0.01 0.01 0.01 0.01 0.01 0.01 0.02 0.02 0.03 0.03 0.03 0.03 0.03 0.03
0.00 0.00 0.00 0.01 0.01 0.01 0.01 0.01 0.01 0.01 0.02 0.02 0.03 0.03 0.03 0.03 0.04 0.05 0.05 0.05 0.04 0.03 0.03 0.03 0.03 0.02 0.02 0.01 0.02 0.02 0.01 0.00 0.00 0.01 0.01 0.02 0.02 0.03 0.04 0.03 0.03 0.03 0.03
0.00 0.01 0.01 0.01 0.01 0.02 0.01 0.01 0.01 0.01 0.02 0.02 0.03 0.04 0.04 0.04 0.04 0.05 0.05 0.05 0.05 0.04 0.04 0.04 0.03 0.03 0.02 0.01 0.01 0.01 0.01 0.00 0.00 0.00 0.01 0.01 0.02 0.03 0.04 0.03 0.03 0.02 0.02
0.00 0.00 0.00 0.01 0.01 0.01 0.02 0.02 0.02 0.02 0.02 0.02 0.03 0.03 0.04 0.05 0.05 0.05 0.06 0.06 0.06 0.06 0.05 0.05 0.04 0.03 0.02 0.01 0.01 0.01 0.01 0.00 0.00 0.00 0.01 0.01 0.02 0.03 0.05 0.05 0.03 0.02 0.01
0.00 0.00 0.00 0.00 0.01 0.01 0.01 0.02 0.02 0.02 0.02 0.03 0.03 0.03 0.04 0.05 0.05 0.05 0.05 0.06 0.07 0.07 0.07 0.07 0.06 0.05 0.03 0.01 0.01 0.01 0.01 0.01 0.01 0.00 0.01 0.01 0.02 0.03 0.05 0.05 0.05 0.03 0.02
0.00 0.00 0.00 0.00 0.00 0.01 0.01 0.02 0.02 0.02 0.02 0.02 0.02 0.02 0.03 0.04 0.05 0.04 0.03 0.04 0.04 0.06 0.07 0.07 0.07 0.06 0.04 0.02 0.02 0.02 0.01 0.02 0.01 0.01 0.01 0.02 0.02 0.03 0.04 0.04 0.05 0.04 0.03
0.00 0.00 0.00 0.00 0.00 0.00 0.01 0.01 0.02 0.02 0.02 0.02 0.01 0.01 0.02 0.03 0.04 0.05 0.04 0.04 0.04 0.04 0.05 0.06 0.06 0.06 0.06 0.05 0.04 0.04 0.04 0.03 0.02 0.01 0.02 0.03 0.02 0.02 0.03 0.04 0.04 0.04 0.03
0.00 0.00 0.00 0.00 0.00 0.00 0.00 0.01 0.02 0.02 0.02 0.02 0.01 0.01 0.01 0.02 0.04 0.05 0.06 0.06 0.05 0.05 0.04 0.05 0.06 0.06 0.06 0.07 0.07 0.07 0.07 0.06 0.04 0.02 0.02 0.02 0.02 0.02 0.03 0.04 0.05 0.04 0.04
0.00 0.00 0.00 0.00 0.00 0.00 0.00 0.00 0.01 0.01 0.02 0.01 0.01 0.01 0.01 0.02 0.04 0.05 0.05 0.06 0.07 0.06 0.05 0.05 0.05 0.05 0.05 0.06 0.06 0.07 0.07 0.07 0.06 0.05 0.03 0.03 0.02 0.03 0.04 0.04 0.05 0.06 0.05
MSLP
1023.78 1023.91 1023.98 1024.00 1024.01 1024.04 1024.12 1024.25 1024.43 1024.65 1024.87 1025.09 1025.27 1025.40 1025.49 1025.53 1025.53 1025.49 1025.42 1025.32 1025.21 1025.07 1024.93 1024.79 1024.65 1024.54 1024.44 1024.38 1024.33 1024.30 1024.27 1024.24 1024.19 1024.12 1024.02 1023.90 1023.75 1023.58 1023.38 1023.16 1022.93 1022.68 1022.43
1023.72 1023.88 1024.00 1024.08 1024.15 1024.24 1024.38 1024.55 1024.76 1025.00 1025.24 1025.47 1025.67 1025.82 1025.93 1026.00 1026.03 1026.02 1025.97 1025.90 1025.79 1025.67 1025.53 1025.38 1025.23 1025.10 1024.99 1024.90 1024.83 1024.77 1024.72 1024.66 1024.59 1024.51 1024.40 1024.27 1024.11 1023.94 1023.75 1023.54 1023.32 1023.11 1022.89
1023.56 1023.77 1023.94 1024.10 1024.25 1024.42 1024.61 1024.83 1025.08 1025.33 1025.59 1025.82 1026.03 1026.19 1026.32 1026.41 1026.47 1026.48 1026.46 1026.40 1026.31 1026.20 1026.07 1025.92 1025.78 1025.65 1025.53 1025.43 1025.35 1025.28 1025.20 1025.12 1025.02 1024.90 1024.76 1024.60 1024.43 1024.24 1024.04 1023.84 1023.65 1023.46 1023.28
1023.36 1023.62 1023.86 1024.09 1024.33 1024.58 1024.84 1025.11 1025.38 1025.65 1025.91 1026.14 1026.35 1026.52 1026.66 1026.77 1026.85 1026.88 1026.88 1026.85 1026.78 1026.68 1026.56 1026.44 1026.31 1026.19 1026.09 1025.99 1025.91 1025.82 1025.73 1025.62 1025.48 1025.32 1025.14 1024.94 1024.73 1024.51 1024.30 1024.10 1023.92 1023.75 1023.61
1023.15 1023.46 1023.77 1024.09 1024.41 1024.74 1025.06 1025.37 1025.67 1025.94 1026.19 1026.41 1026.61 1026.79 1026.94 1027.07 1027.16 1027.22 1027.25 1027.23 1027.18 1027.11 1027.01 1026.91 1026.80 1026.71 1026.62 1026.54 1026.46 1026.37 1026.26 1026.12 1025.95 1025.75 1025.52 1025.27 1025.02 1024.77 1024.53 1024.32 1024.14 1023.99 1023.86
1022.94 1023.29 1023.67 1024.06 1024.46 1024.86 1025.23 1025.58 1025.89 1026.16 1026.39 1026.61 1026.80 1026.97 1027.14 1027.28 1027.40 1027.49 1027.54 1027.55 1027.52 1027.47 1027.39 1027.31 1027.23 1027.15 1027.08 1027.02 1026.95 1026.86 1026.74 1026.58 1026.38 1026.14 1025.87 1025.59 1025.30 1025.01 1024.76 1024.53 1024.33 1024.18 1024.05
1022.72 1023.10 1023.53 1023.99 1024.45 1024.90 1025.32 1025.68 1025.99 1026.26 1026.48 1026.68 1026.87 1027.05 1027.23 1027.40 1027.54 1027.66 1027.74 1027.77 1027.77 1027.73 1027.67 1027.60 1027.53 1027.47 1027.42 1027.37 1027.30 1027.22 1027.09 1026.92 1026.71 1026.45 1026.16 1025.85 1025.54 1025.24 1024.96 1024.71 1024.51 1024.33 1024.19
1022.45 1022.86 1023.33 1023.83 1024.34 1024.83 1025.27 1025.64 1025.95 1026.21 1026.42 1026.62 1026.81 1027.01 1027.21 1027.41 1027.59 1027.73 1027.84 1027.89 1027.90 1027.87 1027.82 1027.75 1027.69 1027.64 1027.59 1027.54 1027.48 1027.39 1027.27 1027.10 1026.88 1026.62 1026.33 1026.02 1025.71 1025.41 1025.13 1024.88 1024.65 1024.46 1024.29
1022.12 1022.55 1023.05 1023.58 1024.11 1024.62 1025.07 1025.45 1025.76 1026.01 1026.22 1026.43 1026.63 1026.85 1027.08 1027.32 1027.53 1027.71 1027.84 1027.91 1027.92 1027.90 1027.84 1027.76 1027.69 1027.63 1027.58 1027.52 1027.46 1027.37 1027.25 1027.09 1026.88 1026.64 1026.37 1026.09 1025.80 1025.52 1025.25 1025.00 1024.77 1024.55 1024.35
1021.72 1022.17 1022.68 1023.23 1023.78 1024.29 1024.75 1025.13 1025.44 1025.69 1025.91 1026.14 1026.37 1026.62 1026.89 1027.16 1027.41 1027.62 1027.77 1027.85 1027.86 1027.83 1027.75 1027.67 1027.58 1027.50 1027.42 1027.36 1027.28 1027.19 1027.07 1026.92 1026.74 1026.53 1026.29 1026.05 1025.80 1025.55 1025.31 1025.07 1024.83 1024.60 1024.36
1021.28 1021.75 1022.27 1022.83 1023.38 1023.90 1024.35 1024.73 1025.04 1025.31 1025.55 1025.80 1026.07 1026.36 1026.67 1026.98 1027.26 1027.49 1027.66 1027.74 1027.75 1027.71 1027.62 1027.51 1027.40 1027.29 1027.20 1027.11 1027.02 1026.92 1026.81 1026.67 1026.50 1026.32 1026.13 1025.92 1025.71 1025.50 1025.29 1025.06 1024.83 1024.58 1024.32
1020.81 1021.30 1021.84 1022.41 1022.96 1023.47 1023.92 1024.31 1024.63 1024.91 1025.18 1025.47 1025.77 1026.11 1026.46 1026.80 1027.11 1027.36 1027.53 1027.62 1027.63 1027.57 1027.47 1027.35 1027.21 1027.09 1026.98 1026.87 1026.76 1026.65 1026.52 1026.38 1026.23 1026.07 1025.90 1025.73 1025.56 1025.38 1025.18 1024.97 1024.74 1024.47 1024.20
1020.35 1020.87 1021.43 1022.00 1022.55 1023.06 1023.51 1023.90 1024.24 1024.54 1024.84 1025.16 1025.51 1025.88 1026.26 1026.64 1026.97 1027.23 1027.41 1027.50 1027.50 1027.44 1027.34 1027.20 1027.06 1026.93 1026.80 1026.67 1026.55 1026.42 1026.28 1026.13 1025.97 1025.81 1025.65 1025.50 1025.34 1025.17 1024.99 1024.78 1024.54 1024.27 1023.97
1019.90 1020.45 1021.03 1021.61 1022.16 1022.67 1023.13 1023.52 1023.87 1024.20 1024.53 1024.88 1025.26 1025.66 1026.07 1026.46 1026.80 1027.07 1027.25 1027.35 1027.36 1027.30 1027.20 1027.08 1026.94 1026.81 1026.67 1026.54 1026.40 1026.24 1026.08 1025.91 1025.73 1025.56 1025.39 1025.23 1025.06 1024.89 1024.70 1024.48 1024.23 1023.95 1023.64
1019.44 1020.02 1020.62 1021.21 1021.77 1022.28 1022.74 1023.15 1023.51 1023.86 1024.22 1024.60 1025.00 1025.42 1025.84 1026.23 1026.57 1026.84 1027.03 1027.12 1027.14 1027.10 1027.02 1026.91 1026.80 1026.67 1026.55 1026.41 1026.26 1026.09 1025.91 1025.70 1025.50 1025.29 1025.09 1024.90 1024.71 1024.52 1024.31 1024.07 1023.80 1023.50 1023.18
1018.94 1019.56 1020.17 1020.77 1021.34 1021.86 1022.32 1022.73 1023.12 1023.49 1023.86 1024.25 1024.67 1025.09 1025.51 1025.90 1026.23 1026.49 1026.67 1026.77 1026.80 1026.77 1026.72 1026.64 1026.55 1026.46 1026.35 1026.22 1026.07 1025.89 1025.68 1025.45 1025.21 1024.97 1024.73 1024.49 1024.27 1024.04 1023.80 1023.54 1023.26 1022.95 1022.62
1018.38 1019.02 1019.65 1020.26 1020.83 1021.35 1021.82 1022.25 1022.64 1023.03 1023.41 1023.81 1024.23 1024.64 1025.04 1025.41 1025.72 1025.96 1026.13 1026.22 1026.26 1026.26 1026.23 1026.19 1026.13 1026.07 1025.99 1025.88 1025.74 1025.55 1025.34 1025.08 1024.81 1024.53 1024.26 1023.99 1023.72 1023.46 1023.19 1022.91 1022.61 1022.28 1021.95
1017.77 1018.41 1019.05 1019.66 1020.24 1020.77 1021.25 1021.69 1022.10 1022.49 1022.88 1023.28 1023.68 1024.07 1024.45 1024.78 1025.06 1025.27 1025.41 1025.49 1025.53 1025.54 1025.53 1025.52 1025.50 1025.47 1025.42 1025.33 1025.21 1025.04 1024.82 1024.56 1024.27 1023.97 1023.67 1023.37 1023.08 1022.79 1022.49 1022.19 1021.87 1021.54 1021.20
1017.12 1017.76 1018.40 1019.02 1019.60 1020.14 1020.63 1021.08 1021.51 1021.91 1022.30 1022.68 1023.06 1023.42 1023.75 1024.04 1024.27 1024.44 1024.55 1024.62 1024.64 1024.65 1024.65 1024.66 1024.66 1024.66 1024.64 1024.58 1024.48 1024.33 1024.12 1023.88 1023.59 1023.29 1022.97 1022.66 1022.35 1022.04 1021.73 1021.41 1021.08 1020.74 1020.40
1016.52 1017.15 1017.78 1018.40 1018.99 1019.54 1020.04 1020.51 1020.94 1021.34 1021.73 1022.09 1022.44 1022.76 1023.05 1023.28 1023.46 1023.57 1023.64 1023.67 1023.67 1023.67 1023.67 1023.67 1023.69 1023.71 1023.71 1023.68 1023.61 1023.48 1023.31 1023.08 1022.81 1022.52 1022.21 1021.90 1021.59 1021.27 1020.95 1020.61 1020.27 1019.91 1019.54
1016.06 1016.67 1017.29 1017.90 1018.49 1019.05 1019.56 1020.03 1020.47 1020.87 1021.25 1021.59 1021.90 1022.18 1022.40 1022.58 1022.69 1022.75 1022.77 1022.75 1022.72 1022.69 1022.67 1022.67 1022.69 1022.71 1022.73 1022.72 1022.68 1022.58 1022.44 1022.25 1022.01 1021.74 1021.45 1021.15 1020.84 1020.51 1020.18 1019.83 1019.46 1019.07 1018.67
1015.83 1016.42 1017.02 1017.62 1018.20 1018.75 1019.27 1019.74 1020.17 1020.56 1020.92 1021.23 1021.50 1021.73 1021.90 1022.01 1022.06 1022.06 1022.02 1021.95 1021.88 1021.81 1021.77 1021.75 1021.76 1021.78 1021.81 1021.82 1021.79 1021.73 1021.62 1021.46 1021.26 1021.02 1020.75 1020.46 1020.15 1019.82 1019.47 1019.09 1018.69 1018.26 1017.81
1015.88 1016.45 1017.03 1017.61 1018.17 1018.70 1019.20 1019.66 1020.07 1020.44 1020.77 1021.05 1021.28 1021.45 1021.56 1021.62 1021.61 1021.55 1021.46 1021.34 1021.22 1021.12 1021.05 1021.00 1020.99 1021.01 1021.03 1021.05 1021.04 1021.00 1020.92 1020.79 1020.62 1020.40 1020.16 1019.88 1019.57 1019.23 1018.85 1018.44 1017.99 1017.50 1016.99
1016.24 1016.78 1017.33 1017.87 1018.39 1018.89 1019.35 1019.77 1020.15 1020.49 1020.78 1021.02 1021.20 1021.33 1021.39 1021.39 1021.34 1021.23 1021.09 1020.93 1020.78 1020.64 1020.53 1020.47 1020.43 1020.43 1020.45 1020.46 1020.47 1020.44 1020.37 1020.27 1020.12 1019.92 1019.69 1019.41 1019.09 1018.74 1018.33 1017.88 1017.38 1016.84 1016.25
1016.87 1017.37 1017.86 1018.35 1018.81 1019.25 1019.65 1020.02 1020.35 1020.64 1020.89 1021.08 1021.22 1021.31 1021.33 1021.29 1021.19 1021.05 1020.87 1020.69 1020.50 1020.34 1020.21 1020.12 1020.07 1020.05 1020.05 1020.06 1020.06 1020.04 1019.98 1019.88 1019.74 1019.55 1019.32 1019.04 1018.71 1018.33 1017.90 1017.41 1016.87 1016.27 1015.62
1017.67 1018.12 1018.55 1018.96 1019.34 1019.70 1020.03 1020.33 1020.59 1020.83 1021.02 1021.17 1021.27 1021.32 1021.31 1021.24 1021.12 1020.96 1020.76 1020.56 1020.36 1020.18 1020.03 1019.92 1019.85 1019.81 1019.80 1019.79 1019.78 1019.75 1019.69 1019.58 1019.44 1019.25 1019.01 1018.72 1018.38 1017.98 1017.53 1017.01 1016.44 1015.80 1015.11
Thickness
5576 5578 5580 5583 5584 5586 5588 5590 5593 5595 5597 5599 5601 5603 5604 5607 5608 5610 5611 5613 5615 5617 5619 5621 5622 5624 5625 5627 5628 5629 5631 5632 5633 5634 5634 5635 5635 5636 5637 5637 5638 5639 5639
5566 5568 5570 5572 5574 5576 5578 5580 5582 5584 5587 5589 5591 5594 5595 5597 5599 5601 5603 5604 5606 5608 5610 5612 5614 5615 5617 5618 5619 5621 5622 5624 5625 5626 5627 5627 5628 5629 5630 5631 5631 5632 5632
5556 5558 5559 5561 5563 5565 5567 5570 5572 5574 5577 5579 5581 5583 5586 5587 5590 5591 5593 5594 5596 5598 5600 5602 5603 5605 5607 5608 5610 5611 5613 5614 5615 5616 5618 5619 5620 5621 5622 5623 5624 5624 5625
5545 5547 5549 5550 5551 5554 5556 5558 5560 5562 5565 5567 5570 5573 5575 5577 5580 5581 5583 5584 5586 5587 5589 5590 5592 5594 5595 5597 5599 5601 5602 5604 5605 5606 5608 5609 5611 5612 5614 5615 5616 5617 5617
5534 5536 5537 5539 5540 5542 5544 5546 5548 5550 5552 5555 5559 5562 5564 5566 5569 5571 5572 5572 5574 5575 5577 5578 5580 5581 5583 5585 5587 5589 5591 5593 5594 5596 5597 5599 5601 5603 5604 5606 5607 5608 5609
5522 5524 5525 5526 5528 5530 5531 5533 5535 5537 5539 5542 5547 5550 5552 5555 5557 5558 5559 5560 5561 5563 5564 5566 5567 5568 5570 5572 5574 5576 5578 5581 5583 5584 5586 5588 5590 5592 5594 5595 5598 5599 5601
5510 5511 5512 5514 5515 5516 5517 5519 5521 5523 5526 5529 5533 5536 5539 5542 5545 5546 5546 5547 5548 5549 5550 5552 5553 5555 5556 5558 5560 5562 5565 5567 5570 5572 5575 5577 5579 5581 5583 5585 5587 5589 5591
5497 5498 5499 5500 5502 5503 5504 5505 5507 5509 5510 5513 5514 5518 5522 5527 5529 5532 5532 5534 5534 5535 5536 5538 5539 5541 5543 5544 5546 5549 5552 5554 5557 5560 5562 5565 5567 5570 5573 5575 5577 5579 5581
5484 5485 5486 5488 5488 5490 5490 5491 5492 5494 5494 5496 5498 5500 5502 5506 5510 5516 5517 5519 5520 5520 5522 5523 5525 5527 5528 5530 5532 5535 5538 5541 5543 5547 5549 5552 5555 5558 5561 5564 5567 5569 5571
5472 5473 5474 5474 5475 5476 5477 5477 5478 5479 5480 5481 5482 5484 5484 5486 5489 5496 5501 5502 5503 5505 5506 5508 5509 5512 5514 5516 5518 5521 5524 5526 5530 5533 5536 5539 5542 5545 5548 5552 5554 5557 5559
5459 5460 5460 5461 5461 5462 5462 5463 5464 5464 5464 5465 5465 5467 5469 5470 5472 5475 5481 5484 5486 5489 5490 5492 5494 5497 5499 5501 5503 5506 5509 5512 5515 5518 5521 5525 5528 5531 5534 5537 5541 5543 5546
5446 5446 5447 5447 5447 5447 5448 5448 5448 5449 5449 5450 5450 5451 5452 5454 5455 5457 5461 5465 5468 5472 5474 5476 5478 5481 5483 5485 5487 5490 5493 5496 5499 5502 5506 5509 5513 5516 5519 5522 5526 5529 5532
5433 5433 5433 5433 5433 5434 5433 5433 5434 5434 5434 5435 5435 5436 5437 5438 5439 5440 5443 5446 5449 5455 5458 5461 5463 5465 5466 5469 5471 5473 5476 5479 5482 5485 5489 5493 5497 5500 5503 5506 5510 5513 5517
5420 5420 5420 5420 5420 5420 5419 5419 5419 5419 5419 5420 5420 5420 5421 5422 5423 5424 5426 5428 5431 5437 5441 5445 5447 5448 5449 5451 5454 5456 5459 5462 5465 5469 5472 5476 5480 5483 5486 5490 5493 5497 5500
5407 5407 5406 5406 5406 5405 5405 5405 5405 5404 5404 5404 5405 5406 5406 5406 5407 5408 5409 5410 5412 5417 5425 5429 5430 5432 5432 5435 5437 5439 5442 5445 5448 5452 5456 5459 5463 5466 5470 5473 5477 5480 5484
5394 5394 5393 5393 5392 5391 5390 5390 5390 5390 5389 5390 5390 5390 5390 5390 5391 5392 5394 5395 5396 5398 5405 5413 5413 5415 5416 5418 5420 5422 5426 5430 5433 5436 5440 5443 5446 5450 5453 5457 5461 5465 5469
5382 5381 5380 5379 5378 5377 5376 5376 5376 5376 5375 5376 5375 5375 5375 5375 5375 5377 5378 5379 5381 5381 5386 5394 5395 5397 5398 5401 5404 5407 5410 5414 5417 5421 5424 5427 5431 5434 5437 5441 5444 5448 5453
5369 5368 5366 5365 5365 5364 5363 5362 5362 5362 5361 5360 5360 5359 5359 5360 5360 5361 5362 5364 5365 5367 5369 5376 5380 5380 5382 5385 5388 5391 5395 5399 5402 5406 5408 5412 5415 5418 5421 5425 5429 5432 5437
5357 5354 5352 5351 5351 5350 5349 5348 5348 5347 5346 5346 5345 5345 5345 5345 5346 5346 5347 5349 5351 5353 5355 5359 5364 5366 5368 5370 5372 5375 5380 5383 5386 5390 5393 5397 5400 5402 5406 5409 5413 5417 5421
5344 5342 5339 5337 5336 5335 5335 5334 5333 5333 5332 5332 5331 5331 5331 5331 5332 5332 5334 5335 5337 5339 5341 5344 5348 5352 5354 5356 5357 5361 5366 5368 5372 5375 5378 5381 5384 5387 5391 5395 5399 5402 5406
5331 5329 5326 5324 5322 5321 5321 5320 5320 5319 5318 5318 5317 5317 5318 5318 5318 5319 5321 5322 5323 5325 5327 5330 5335 5339 5342 5343 5344 5347 5351 5355 5359 5360 5364 5368 5370 5374 5376 5379 5383 5387 5391
5319 5316 5313 5311 5309 5308 5308 5308 5307 5306 5305 5304 5304 5305 5304 5305 5306 5307 5308 5309 5310 5312 5314 5317 5322 5325 5329 5329 5332 5334 5336 5341 5347 5350 5349 5355 5356 5360 5364 5367 5371 5375 5379
5306 5303 5301 5299 5297 5296 5295 5295 5294 5293 5292 5291 5290 5291 5292 5293 5294 5294 5296 5297 5299 5300 5302 5305 5309 5313 5316 5318 5319 5322 5325 5328 5334 5337 5335 5343 5345 5349 5353 5356 5360 5364 5368
5293 5291 5289 5287 5285 5283 5283 5282 5281 5280 5279 5278 5278 5278 5279 5281 5281 5283 5285 5286 5288 5290 5291 5293 5297 5301 5303 5305 5307 5310 5313 5316 5321 5323 5322 5329 5335 5338 5343 5346 5350 5354 5358
5281 5279 5277 5275 5273 5272 5270 5270 5269 5268 5268 5267 5267 5267 5267 5269 5271 5271 5273 5275 5278 5279 5280 5283 5286 5289 5292 5294 5296 5297 5300 5302 5310 5314 5312 5315 5323 5326 5332 5337 5340 5344 5348
5269 5267 5265 5263 5261 5260 5259 5258 5257 5256 5257 5257 5256 5256 5257 5258 5259 5259 5260 5262 5265 5269 5270 5273 5276 5278 5279 5282 5284 5285 5288 5290 5295 5300 5303 5303 5308 5311 5320 5329 5331 5334 5337